�������l�o���
Date,Time,MP-1(��Sv/h),MP-2(��Sv/h),MP-3(��Sv/h),MP-4(��Sv/h),MP-5(��Sv/h),MP-6(��Sv/h),MP-7(��Sv/h),MP-8(��Sv/h),����,����(m/s),���J
2023/10/07,00:00,0.525,0.801,0.492,1.002,0.719,0.322,0.572,0.534,��,4.0,��
2023/10/07,00:10,0.525,0.801,0.492,1.003,0.720,0.321,0.573,0.533,��,6.5,��
2023/10/07,00:20,0.527,0.802,0.492,1.002,0.718,0.321,0.574,0.533,��,7.2,��
2023/10/07,00:30,0.527,0.800,0.491,1.004,0.718,0.321,0.573,0.534,���k��,5.8,��
2023/10/07,00:40,0.527,0.799,0.491,1.004,0.718,0.322,0.571,0.533,���k��,7.0,��
2023/10/07,00:50,0.525,0.801,0.493,1.002,0.718,0.321,0.574,0.532,���k��,7.4,��
2023/10/07,01:00,0.526,0.800,0.491,1.002,0.719,0.320,0.573,0.533,���k��,7.2,��
2023/10/07,01:10,0.525,0.800,0.491,1.003,0.717,0.321,0.573,0.533,��,6.4,��
2023/10/07,01:20,0.525,0.802,0.493,1.003,0.720,0.321,0.573,0.535,��,8.0,��
2023/10/07,01:30,0.525,0.802,0.494,1.004,0.719,0.322,0.572,0.533,���k��,6.1,��
2023/10/07,01:40,0.525,0.801,0.492,1.004,0.719,0.321,0.572,0.533,���k��,5.6,��
2023/10/07,01:50,0.527,0.799,0.492,1.006,0.719,0.320,0.574,0.533,���k��,6.6,��
2023/10/07,02:00,0.525,0.801,0.493,1.003,0.718,0.322,0.575,0.533,���k��,7.5,��
2023/10/07,02:10,0.524,0.800,0.492,1.004,0.717,0.321,0.573,0.532,���k��,3.2,��
2023/10/07,02:20,0.525,0.800,0.493,1.004,0.717,0.321,0.573,0.532,���k��,4.9,��
2023/10/07,02:30,0.525,0.799,0.492,1.005,0.718,0.321,0.574,0.532,���k��,5.2,��
2023/10/07,02:40,0.529,0.802,0.491,1.005,0.719,0.321,0.573,0.533,���k��,5.4,��
2023/10/07,02:50,0.524,0.801,0.492,1.004,0.717,0.321,0.574,0.531,�k��,6.9,��
2023/10/07,03:00,0.528,0.800,0.493,1.006,0.718,0.321,0.574,0.532,���k��,7.6,��
2023/10/07,03:10,0.526,0.800,0.492,1.003,0.716,0.321,0.574,0.533,�k��,6.3,��
2023/10/07,03:20,0.526,0.802,0.493,1.003,0.720,0.321,0.574,0.534,�k��,4.3,��
2023/10/07,03:30,0.527,0.800,0.492,1.004,0.717,0.321,0.574,0.532,���k��,4.7,��
2023/10/07,03:40,0.528,0.802,0.491,1.005,0.717,0.322,0.573,0.532,���k��,6.7,��
2023/10/07,03:50,0.528,0.800,0.491,1.004,0.718,0.321,0.573,0.533,���k��,7.1,��
2023/10/07,04:00,0.525,0.800,0.493,1.004,0.719,0.322,0.574,0.532,���k��,6.0,��
2023/10/07,04:10,0.527,0.801,0.493,1.004,0.717,0.320,0.574,0.532,�k��,5.0,��
2023/10/07,04:20,0.526,0.800,0.492,1.003,0.718,0.321,0.573,0.531,�k��,5.0,��
2023/10/07,04:30,0.527,0.800,0.493,1.003,0.719,0.320,0.573,0.532,�k��,6.3,��
2023/10/07,04:40,0.526,0.804,0.494,1.004,0.718,0.321,0.573,0.532,�k��,3.5,��
2023/10/07,04:50,0.525,0.800,0.492,1.006,0.717,0.321,0.573,0.532,�k��,3.1,��
2023/10/07,05:00,0.526,0.800,0.492,1.004,0.718,0.320,0.573,0.532,���k��,3.9,��
2023/10/07,05:10,0.525,0.801,0.492,1.004,0.718,0.320,0.574,0.533,�k��,2.6,��
2023/10/07,05:20,0.525,0.799,0.492,1.004,0.716,0.320,0.573,0.532,�k�k��,2.6,��
2023/10/07,05:30,0.526,0.800,0.491,1.004,0.718,0.321,0.574,0.532,�k�k��,1.7,��
2023/10/07,05:40,0.526,0.801,0.491,1.005,0.719,0.320,0.575,0.532,�k��,3.2,��
2023/10/07,05:50,0.526,0.800,0.493,1.003,0.717,0.321,0.573,0.533,���k��,4.0,��
2023/10/07,06:00,0.525,0.802,0.492,1.006,0.718,0.319,0.574,0.531,���k��,4.8,��
2023/10/07,06:10,0.526,0.802,0.493,1.005,0.719,0.321,0.573,0.533,���k��,4.8,��
2023/10/07,06:20,0.524,0.801,0.492,1.002,0.716,0.320,0.574,0.533,���k��,3.1,��
2023/10/07,06:30,0.526,0.803,0.492,1.005,0.719,0.321,0.575,0.535,���k��,3.8,��
2023/10/07,06:40,0.526,0.802,0.492,1.006,0.718,0.322,0.572,0.533,���k��,2.6,��
2023/10/07,06:50,0.527,0.802,0.492,1.006,0.719,0.322,0.573,0.532,���k��,4.2,��
2023/10/07,07:00,0.527,0.802,0.493,1.004,0.717,0.320,0.573,0.531,���k��,5.6,��
2023/10/07,07:10,0.526,0.800,0.494,1.006,0.719,0.321,0.573,0.532,���k��,3.6,��
2023/10/07,07:20,0.527,0.801,0.493,1.006,0.716,0.321,0.572,0.533,���k��,3.9,��
2023/10/07,07:30,0.527,0.800,0.493,1.003,0.719,0.320,0.573,0.533,���k��,4.2,��
2023/10/07,07:40,0.527,0.801,0.492,1.004,0.718,0.320,0.572,0.532,���k��,5.1,��
2023/10/07,07:50,0.526,0.801,0.491,1.005,0.718,0.320,0.573,0.532,���k��,3.5,��
2023/10/07,08:00,0.526,0.800,0.492,1.005,0.719,0.320,0.575,0.533,�k��,3.7,��
2023/10/07,08:10,0.525,0.799,0.491,1.006,0.716,0.320,0.573,0.533,�k��,5.1,��
2023/10/07,08:20,0.525,0.800,0.493,1.004,0.718,0.321,0.571,0.533,���k��,4.8,��
2023/10/07,08:30,0.525,0.799,0.492,1.004,0.717,0.321,0.573,0.532,�k��,4.0,��
2023/10/07,08:40,0.524,0.799,0.492,1.004,0.716,0.321,0.572,0.534,�k��,5.4,��
2023/10/07,08:50,0.525,0.800,0.492,1.006,0.718,0.320,0.573,0.533,���k��,5.9,��
2023/10/07,09:00,0.523,0.798,0.493,1.005,0.720,0.321,0.573,0.532,���k��,4.6,��
2023/10/07,09:10,0.525,0.800,0.494,1.006,0.717,0.321,0.574,0.532,���k��,5.8,��
2023/10/07,09:20,0.526,0.799,0.492,1.006,0.716,0.319,0.573,0.533,�k��,5.2,��
2023/10/07,09:30,0.525,0.800,0.493,1.006,0.715,0.319,0.572,0.531,�k��,7.0,��
2023/10/07,09:40,0.526,0.802,0.493,1.008,0.717,0.320,0.573,0.530,���k��,7.5,��
2023/10/07,09:50,0.526,0.801,0.490,1.006,0.717,0.320,0.573,0.532,���k��,5.0,��
2023/10/07,10:00,0.527,0.800,0.491,1.006,0.718,0.320,0.574,0.530,���k��,5.8,��
2023/10/07,10:10,0.526,0.802,0.492,1.008,0.718,0.319,0.573,0.531,���k��,6.5,��
2023/10/07,10:20,0.526,0.802,0.492,1.008,0.719,0.319,0.572,0.531,���k��,7.3,��
2023/10/07,10:30,0.527,0.802,0.491,1.009,0.717,0.320,0.574,0.531,�k��,8.3,��
2023/10/07,10:40,0.525,0.803,0.489,1.007,0.719,0.320,0.572,0.531,���k��,8.1,��
2023/10/07,10:50,0.528,0.801,0.491,1.010,0.720,0.321,0.573,0.531,�k��,6.6,��
2023/10/07,11:00,0.527,0.802,0.492,1.007,0.718,0.321,0.573,0.533,�k��,8.8,��
2023/10/07,11:10,0.527,0.802,0.491,1.009,0.720,0.319,0.574,0.533,���k��,6.3,��
2023/10/07,11:20,0.529,0.802,0.491,1.008,0.720,0.320,0.573,0.532,���k��,7.9,��
2023/10/07,11:30,0.527,0.804,0.492,1.007,0.718,0.320,0.573,0.531,���k��,8.3,��
2023/10/07,11:40,0.527,0.803,0.492,1.010,0.720,0.320,0.572,0.532,�k��,10.2,��
2023/10/07,11:50,0.526,0.803,0.493,1.007,0.719,0.320,0.575,0.534,���k��,11.3,��
2023/10/07,12:00,0.529,0.804,0.492,1.007,0.720,0.321,0.572,0.533,�k��,7.3,��
2023/10/07,12:10,0.527,0.802,0.492,1.006,0.720,0.319,0.573,0.533,�k��,6.4,��
2023/10/07,12:20,0.529,0.805,0.492,1.008,0.719,0.320,0.573,0.535,���k��,9.3,��
2023/10/07,12:30,0.528,0.805,0.493,1.007,0.721,0.320,0.572,0.532,�k��,6.1,��
2023/10/07,12:40,0.527,0.803,0.492,1.006,0.722,0.320,0.573,0.532,�k��,6.9,��
2023/10/07,12:50,0.525,0.805,0.492,1.007,0.721,0.321,0.571,0.534,�k��,4.6,��
2023/10/07,13:00,0.528,0.804,0.491,1.008,0.721,0.321,0.573,0.532,���k��,4.9,��
2023/10/07,13:10,0.528,0.803,0.493,1.008,0.721,0.321,0.572,0.534,���k��,4.9,��
2023/10/07,13:20,0.527,0.804,0.493,1.010,0.721,0.319,0.575,0.532,�k��,5.4,��
2023/10/07,13:30,0.528,0.806,0.492,1.009,0.721,0.320,0.573,0.533,�k��,7.1,��
2023/10/07,13:40,0.528,0.804,0.494,1.007,0.721,0.319,0.573,0.533,�k��,7.0,��
2023/10/07,13:50,0.527,0.807,0.494,1.007,0.723,0.319,0.572,0.533,�k��,9.0,��
2023/10/07,14:00,0.527,0.806,0.492,1.009,0.722,0.321,0.573,0.534,�k��,7.9,��
2023/10/07,14:10,0.528,0.801,0.493,1.008,0.721,0.319,0.575,0.532,�k�k��,6.2,��
2023/10/07,14:20,0.528,0.804,0.493,1.008,0.720,0.321,0.572,0.533,�k�k��,5.6,��
2023/10/07,14:30,0.527,0.804,0.493,1.009,0.722,0.321,0.573,0.532,�k�k��,5.6,��
2023/10/07,14:40,0.527,0.804,0.495,1.010,0.721,0.320,0.572,0.532,�k�k��,4.6,��
2023/10/07,14:50,0.527,0.805,0.493,1.011,0.722,0.321,0.573,0.532,�k��,3.9,��
2023/10/07,15:00,0.528,0.805,0.493,1.010,0.721,0.320,0.571,0.533,�k��,3.7,��
2023/10/07,15:10,0.525,0.806,0.493,1.010,0.723,0.321,0.573,0.532,�k��,4.4,��
2023/10/07,15:20,0.528,0.804,0.492,1.009,0.721,0.320,0.570,0.533,�k��,4.9,��
2023/10/07,15:30,0.527,0.805,0.492,1.008,0.722,0.321,0.572,0.532,�k��,5.9,��
2023/10/07,15:40,0.527,0.805,0.494,1.011,0.721,0.320,0.572,0.532,�k��,8.3,��
2023/10/07,15:50,0.527,0.807,0.491,1.010,0.721,0.320,0.571,0.532,�k��,5.2,��
2023/10/07,16:00,0.526,0.807,0.492,1.008,0.722,0.322,0.573,0.532,�k��,5.9,��
2023/10/07,16:10,0.526,0.805,0.491,1.009,0.722,0.321,0.572,0.533,�k��,6.4,��
2023/10/07,16:20,0.527,0.806,0.492,1.009,0.720,0.322,0.572,0.533,�k��,8.0,��
2023/10/07,16:30,0.527,0.807,0.492,1.011,0.721,0.320,0.572,0.534,�k��,8.3,��
2023/10/07,16:40,0.527,0.807,0.492,1.010,0.723,0.321,0.572,0.535,�k��,8.0,��
2023/10/07,16:50,0.526,0.810,0.493,1.011,0.725,0.321,0.571,0.534,�k��,8.7,��
2023/10/07,17:00,0.526,0.808,0.490,1.012,0.721,0.321,0.572,0.533,�k��,7.1,��
2023/10/07,17:10,0.526,0.806,0.492,1.011,0.722,0.321,0.572,0.534,�k��,5.1,��
2023/10/07,17:20,0.528,0.808,0.492,1.007,0.723,0.321,0.571,0.534,�k��,5.4,��
2023/10/07,17:30,0.530,0.807,0.492,1.009,0.722,0.321,0.572,0.535,�k��,5.2,��
2023/10/07,17:40,0.531,0.805,0.492,1.009,0.722,0.321,0.572,0.535,�k��,4.6,��
2023/10/07,17:50,0.529,0.807,0.492,1.011,0.722,0.320,0.573,0.534,���k��,3.7,��
2023/10/07,18:00,0.530,0.807,0.494,1.009,0.725,0.319,0.573,0.534,�k��,5.0,��
2023/10/07,18:10,0.529,0.807,0.494,1.009,0.725,0.321,0.573,0.533,�k��,4.3,��
2023/10/07,18:20,0.529,0.805,0.495,1.011,0.723,0.322,0.573,0.534,���k��,5.6,��
2023/10/07,18:30,0.529,0.807,0.495,1.010,0.724,0.321,0.573,0.535,���k��,7.0,��
2023/10/07,18:40,0.528,0.807,0.493,1.010,0.723,0.321,0.574,0.533,�k��,6.1,��
2023/10/07,18:50,0.529,0.806,0.495,1.009,0.723,0.321,0.574,0.533,�k��,5.4,��
2023/10/07,19:00,0.530,0.805,0.495,1.011,0.725,0.321,0.574,0.533,�k��,5.3,��
2023/10/07,19:10,0.529,0.807,0.495,1.009,0.725,0.320,0.574,0.532,�k��,4.8,��
2023/10/07,19:20,0.528,0.808,0.495,1.010,0.726,0.322,0.574,0.534,�k��,5.2,��
2023/10/07,19:30,0.529,0.806,0.495,1.009,0.725,0.320,0.574,0.534,���k��,7.6,��
2023/10/07,19:40,0.529,0.808,0.494,1.011,0.723,0.321,0.575,0.534,�k��,5.6,��
2023/10/07,19:50,0.528,0.808,0.494,1.008,0.722,0.321,0.574,0.534,���k��,5.5,��
2023/10/07,20:00,0.530,0.805,0.494,1.012,0.723,0.323,0.575,0.533,���k��,5.3,��
2023/10/07,20:10,0.528,0.806,0.494,1.010,0.723,0.320,0.573,0.533,���k��,6.0,��
2023/10/07,20:20,0.528,0.806,0.496,1.010,0.723,0.320,0.575,0.532,���k��,7.1,��
2023/10/07,20:30,0.529,0.807,0.493,1.012,0.722,0.320,0.574,0.533,�k��,7.5,��
2023/10/07,20:40,0.529,0.808,0.494,1.011,0.724,0.321,0.575,0.533,�k��,8.5,��
2023/10/07,20:50,0.528,0.808,0.494,1.010,0.723,0.320,0.574,0.533,�k��,6.5,��
2023/10/07,21:00,0.528,0.807,0.493,1.012,0.725,0.320,0.573,0.533,�k��,5.0,��
2023/10/07,21:10,0.529,0.807,0.494,1.009,0.723,0.320,0.572,0.533,���k��,5.0,��
2023/10/07,21:20,0.529,0.805,0.493,1.012,0.724,0.319,0.573,0.532,���k��,4.3,��
2023/10/07,21:30,0.529,0.805,0.492,1.009,0.723,0.320,0.574,0.534,�k��,4.9,��
2023/10/07,21:40,0.530,0.807,0.494,1.010,0.724,0.321,0.573,0.535,�k��,6.2,��
2023/10/07,21:50,0.528,0.808,0.494,1.009,0.724,0.321,0.574,0.533,�k��,5.0,��
2023/10/07,22:00,0.529,0.805,0.492,1.011,0.722,0.321,0.573,0.533,�k��,6.6,��
2023/10/07,22:10,0.527,0.806,0.493,1.009,0.724,0.320,0.574,0.533,�k��,6.7,��
2023/10/07,22:20,0.530,0.806,0.494,1.011,0.723,0.320,0.571,0.533,�k��,4.2,��
2023/10/07,22:30,0.528,0.807,0.494,1.010,0.723,0.321,0.574,0.533,�k��,4.9,��
2023/10/07,22:40,0.530,0.804,0.494,1.011,0.722,0.320,0.571,0.532,�k�k��,4.5,��
2023/10/07,22:50,0.529,0.808,0.493,1.010,0.723,0.322,0.572,0.533,�k��,6.2,��
2023/10/07,23:00,0.531,0.806,0.494,1.008,0.723,0.321,0.574,0.533,�k��,8.3,��
2023/10/07,23:10,0.529,0.806,0.492,1.012,0.722,0.321,0.575,0.533,�k��,6.1,��
2023/10/07,23:20,0.529,0.806,0.494,1.011,0.723,0.321,0.575,0.533,�k��,6.8,��
2023/10/07,23:30,0.528,0.804,0.492,1.011,0.723,0.321,0.574,0.534,�k��,6.1,��
2023/10/07,23:40,0.528,0.808,0.493,1.010,0.724,0.320,0.575,0.533,���k��,5.3,��
2023/10/07,23:50,0.530,0.805,0.495,1.010,0.724,0.320,0.573,0.534,���k��,5.2,��
